Time,TemperatureF,DewpointF,PressureIn,WindDirection,WindDirectionDegrees,WindSpeedMPH,WindSpeedGustMPH,Humidity,HourlyPrecipIn,Conditions,Clouds,dailyrainin,SoftwareType,DateUTC
2013-05-23 00:16:00,70.4,69.0,30.02,NNW,327,0.0,0.0,94,0.00,,,0.00,weatherlink.com 1.10,2013-05-23 10:16:00,
2013-05-23 00:34:00,70.3,69.0,30.01,NNW,327,0.0,0.0,95,0.00,,,0.00,weatherlink.com 1.10,2013-05-23 10:34:00,
2013-05-23 00:52:00,70.1,69.0,30.01,NNW,327,0.0,0.0,95,0.00,,,0.00,weatherlink.com 1.10,2013-05-23 10:52:00,
2013-05-23 01:10:00,69.9,68.0,30.01,NNW,327,0.0,0.0,95,0.00,,,0.00,weatherlink.com 1.10,2013-05-23 11:10:00,
2013-05-23 01:29:00,69.7,68.0,30.00,NNW,327,0.0,0.0,95,0.00,,,0.00,weatherlink.com 1.10,2013-05-23 11:29:00,
2013-05-23 01:47:00,69.7,68.0,30.00,NNW,327,0.0,0.0,95,0.00,,,0.00,weatherlink.com 1.10,2013-05-23 11:47:00,
2013-05-23 02:05:00,69.7,69.0,30.00,NNW,327,0.0,0.0,96,0.00,,,0.00,weatherlink.com 1.10,2013-05-23 12:05:00,
2013-05-23 02:24:00,69.5,68.0,29.99,NNW,327,0.0,0.0,95,0.00,,,0.00,weatherlink.com 1.10,2013-05-23 12:24:00,
2013-05-23 02:42:00,69.3,68.0,29.99,NNW,327,0.0,0.0,96,0.00,,,0.00,weatherlink.com 1.10,2013-05-23 12:42:00,
2013-05-23 03:00:00,69.4,68.0,29.99,NNW,327,0.0,0.0,96,0.01,,,0.01,weatherlink.com 1.10,2013-05-23 13:00:00,
2013-05-23 03:19:00,69.2,68.0,29.99,NNW,327,0.0,0.0,96,0.01,,,0.01,weatherlink.com 1.10,2013-05-23 13:19:00,
2013-05-23 03:37:00,69.1,68.0,29.98,NNW,327,0.0,0.0,96,0.01,,,0.01,weatherlink.com 1.10,2013-05-23 13:37:00,
2013-05-23 03:55:00,68.9,68.0,29.98,NNW,327,0.0,0.0,96,0.00,,,0.01,weatherlink.com 1.10,2013-05-23 13:55:00,
2013-05-23 04:13:00,68.9,68.0,29.98,NNW,327,0.0,0.0,96,0.00,,,0.01,weatherlink.com 1.10,2013-05-23 14:13:00,
2013-05-23 04:32:00,68.7,68.0,29.98,NNW,327,0.0,0.0,96,0.00,,,0.01,weatherlink.com 1.10,2013-05-23 14:32:00,
2013-05-23 04:50:00,68.8,68.0,29.99,NNW,327,0.0,0.0,96,0.00,,,0.01,weatherlink.com 1.10,2013-05-23 14:50:00,
2013-05-23 05:08:00,68.8,68.0,29.99,NNW,327,0.0,0.0,96,0.00,,,0.01,weatherlink.com 1.10,2013-05-23 15:08:00,
2013-05-23 05:26:00,68.8,68.0,29.99,NNW,327,0.0,0.0,96,0.00,,,0.01,weatherlink.com 1.10,2013-05-23 15:26:00,
2013-05-23 05:44:00,69.1,68.0,29.99,NNW,327,0.0,0.0,97,0.00,,,0.01,weatherlink.com 1.10,2013-05-23 15:44:00,
2013-05-23 06:03:00,69.3,68.0,30.00,NNW,327,0.0,0.0,97,0.00,,,0.01,weatherlink.com 1.10,2013-05-23 16:03:00,
2013-05-23 06:21:00,69.5,69.0,30.00,NNW,327,0.0,0.0,97,0.00,,,0.01,weatherlink.com 1.10,2013-05-23 16:21:00,
2013-05-23 06:39:00,70.0,69.0,30.01,ENE,59,0.0,0.0,97,0.00,,,0.01,weatherlink.com 1.10,2013-05-23 16:39:00,
2013-05-23 06:57:00,71.6,71.0,30.01,ENE,59,0.0,0.0,97,0.00,,,0.01,weatherlink.com 1.10,2013-05-23 16:57:00,
2013-05-23 07:16:00,73.0,72.0,30.02,ENE,59,0.0,0.0,97,0.00,,,0.01,weatherlink.com 1.10,2013-05-23 17:16:00,
2013-05-23 07:34:00,74.7,74.0,30.03,ENE,59,0.0,0.0,97,0.00,,,0.01,weatherlink.com 1.10,2013-05-23 17:34:00,
2013-05-23 07:52:00,75.5,74.0,30.04,ENE,59,0.0,0.0,96,0.00,,,0.01,weatherlink.com 1.10,2013-05-23 17:52:00,
2013-05-23 08:10:00,76.8,74.0,30.04,ENE,59,1.0,1.0,92,0.00,,,0.01,weatherlink.com 1.10,2013-05-23 18:10:00,
2013-05-23 08:28:00,78.5,74.0,30.04,NNW,341,2.0,3.0,87,0.00,,,0.01,weatherlink.com 1.10,2013-05-23 18:28:00,
2013-05-23 08:46:00,79.3,74.0,30.04,NNW,340,0.0,5.0,84,0.00,,,0.01,weatherlink.com 1.10,2013-05-23 18:46:00,
2013-05-23 09:07:00,80.1,75.0,30.04,North,350,0.0,5.0,84,0.00,,,0.01,weatherlink.com 1.10,2013-05-23 19:07:00,
2013-05-23 09:30:00,80.2,74.0,30.05,NNW,339,7.0,8.0,82,0.00,,,0.01,weatherlink.com 1.10,2013-05-23 19:30:00,
2013-05-23 09:48:00,80.3,74.0,30.05,NNE,21,3.0,8.0,82,0.00,,,0.01,weatherlink.com 1.10,2013-05-23 19:48:00,
2013-05-23 10:07:00,80.7,74.0,30.04,ENE,63,2.0,7.0,79,0.00,,,0.01,weatherlink.com 1.10,2013-05-23 20:07:00,
2013-05-23 11:40:00,81.0,73.0,30.03,North,360,3.0,8.0,78,0.00,,,0.01,weatherlink.com 1.10,2013-05-23 21:40:00,
2013-05-23 11:58:00,82.2,74.0,30.03,NNE,13,0.0,10.0,77,0.00,,,0.01,weatherlink.com 1.10,2013-05-23 21:58:00,
2013-05-23 12:16:00,81.6,74.0,30.03,NNW,348,3.0,8.0,78,0.00,,,0.01,weatherlink.com 1.10,2013-05-23 22:16:00,
2013-05-23 12:35:00,81.0,74.0,30.02,ENE,72,2.0,7.0,79,0.00,,,0.01,weatherlink.com 1.10,2013-05-23 22:35:00,
2013-05-23 12:53:00,80.4,74.0,30.02,NNE,16,3.0,9.0,81,0.00,,,0.01,weatherlink.com 1.10,2013-05-23 22:53:00,
2013-05-23 13:11:00,80.8,74.0,30.01,East,80,2.0,6.0,81,0.00,,,0.01,weatherlink.com 1.10,2013-05-23 23:11:00,
2013-05-23 13:29:00,81.2,74.0,30.01,East,98,3.0,9.0,80,0.00,,,0.01,weatherlink.com 1.10,2013-05-23 23:29:00,
2013-05-23 13:47:00,82.2,75.0,30.00,ENE,64,0.0,6.0,80,0.00,,,0.01,weatherlink.com 1.10,2013-05-23 23:47:00,
2013-05-23 14:09:00,81.6,74.0,30.00,East,86,7.0,7.0,79,0.00,,,0.01,weatherlink.com 1.10,2013-05-24 00:09:00,
2013-05-23 14:27:00,81.8,75.0,29.99,ENE,69,0.0,6.0,81,0.00,,,0.01,weatherlink.com 1.10,2013-05-24 00:27:00,
2013-05-23 14:45:00,81.0,73.0,29.99,ESE,109,1.0,3.0,78,0.00,,,0.01,weatherlink.com 1.10,2013-05-24 00:45:00,
2013-05-23 15:03:00,80.1,73.0,29.98,SSE,159,0.0,5.0,80,0.00,,,0.01,weatherlink.com 1.10,2013-05-24 01:03:00,
2013-05-23 15:21:00,80.6,73.0,29.98,South,185,0.0,5.0,77,0.00,,,0.01,weatherlink.com 1.10,2013-05-24 01:21:00,
2013-05-23 15:42:00,81.1,74.0,29.98,South,174,1.0,7.0,79,0.00,,,0.01,weatherlink.com 1.10,2013-05-24 01:42:00,
2013-05-23 16:00:00,80.2,73.0,29.98,ESE,107,0.0,6.0,80,0.00,,,0.01,weatherlink.com 1.10,2013-05-24 02:00:00,
2013-05-23 16:18:00,80.7,73.0,29.98,East,100,0.0,4.0,78,0.00,,,0.01,weatherlink.com 1.10,2013-05-24 02:18:00,
2013-05-23 16:55:00,80.5,73.0,29.98,ESE,123,1.0,3.0,79,0.00,,,0.01,weatherlink.com 1.10,2013-05-24 02:55:00,
2013-05-23 17:13:00,80.3,74.0,29.97,ENE,77,0.0,4.0,80,0.00,,,0.01,weatherlink.com 1.10,2013-05-24 03:13:00,
2013-05-23 17:32:00,79.9,73.0,29.97,ENE,58,0.0,4.0,80,0.00,,,0.01,weatherlink.com 1.10,2013-05-24 03:32:00,
2013-05-23 17:50:00,79.2,72.0,29.98,SE,130,0.0,7.0,80,0.00,,,0.01,weatherlink.com 1.10,2013-05-24 03:50:00,
2013-05-23 18:08:00,78.7,72.0,29.98,East,90,0.0,6.0,80,0.00,,,0.01,weatherlink.com 1.10,2013-05-24 04:08:00,
2013-05-23 18:26:00,78.1,72.0,29.99,SE,138,0.0,3.0,82,0.00,,,0.01,weatherlink.com 1.10,2013-05-24 04:26:00,
2013-05-23 18:44:00,77.6,72.0,29.99,East,79,0.0,3.0,82,0.00,,,0.01,weatherlink.com 1.10,2013-05-24 04:44:00,
2013-05-23 19:04:00,77.1,72.0,30.00,ESE,117,0.0,5.0,83,0.00,,,0.01,weatherlink.com 1.10,2013-05-24 05:04:00,
2013-05-23 19:22:00,76.8,72.0,30.00,ESE,110,0.0,3.0,84,0.00,,,0.01,weatherlink.com 1.10,2013-05-24 05:22:00,
2013-05-23 19:40:00,76.7,71.0,30.01,ENE,57,0.0,2.0,84,0.00,,,0.01,weatherlink.com 1.10,2013-05-24 05:40:00,
2013-05-23 19:58:00,76.4,71.0,30.01,NE,36,1.0,2.0,84,0.00,,,0.01,weatherlink.com 1.10,2013-05-24 05:58:00,
2013-05-23 20:16:00,76.2,71.0,30.02,ENE,65,0.0,1.0,85,0.00,,,0.01,weatherlink.com 1.10,2013-05-24 06:16:00,
2013-05-23 20:34:00,76.0,71.0,30.02,East,87,0.0,2.0,84,0.00,,,0.01,weatherlink.com 1.10,2013-05-24 06:34:00,
2013-05-23 20:52:00,76.0,71.0,30.03,North,9,0.0,3.0,84,0.00,,,0.01,weatherlink.com 1.10,2013-05-24 06:52:00,
2013-05-23 21:11:00,75.9,71.0,30.04,NNE,17,0.0,0.0,85,0.00,,,0.01,weatherlink.com 1.10,2013-05-24 07:11:00,
2013-05-23 21:29:00,75.8,71.0,30.04,NE,54,0.0,1.0,85,0.00,,,0.01,weatherlink.com 1.10,2013-05-24 07:29:00,
2013-05-23 21:48:00,76.3,71.0,30.05,East,92,0.0,3.0,85,0.00,,,0.01,weatherlink.com 1.10,2013-05-24 07:48:00,
2013-05-23 22:06:00,76.4,72.0,30.05,ENE,59,0.0,1.0,85,0.00,,,0.01,weatherlink.com 1.10,2013-05-24 08:06:00,
2013-05-23 22:24:00,76.5,72.0,30.06,East,90,0.0,2.0,85,0.00,,,0.01,weatherlink.com 1.10,2013-05-24 08:24:00,
2013-05-23 22:42:00,76.3,71.0,30.06,SE,132,0.0,3.0,84,0.00,,,0.01,weatherlink.com 1.10,2013-05-24 08:42:00,
2013-05-23 23:01:00,76.3,71.0,30.06,ESE,111,0.0,4.0,84,0.00,,,0.01,weatherlink.com 1.10,2013-05-24 09:01:00,
2013-05-23 23:19:00,76.0,71.0,30.06,SE,126,0.0,1.0,84,0.00,,,0.01,weatherlink.com 1.10,2013-05-24 09:19:00,
2013-05-23 23:37:00,75.7,71.0,30.05,ENE,61,0.0,1.0,84,0.00,,,0.01,weatherlink.com 1.10,2013-05-24 09:37:00,
2013-05-23 23:55:00,75.8,71.0,30.05,ESE,107,0.0,2.0,84,0.00,,,0.01,weatherlink.com 1.10,2013-05-24 09:55:00,